Regional Weather Roundup
Issued by NWS Sterling, VA

Home | Current Version | Previous Version | Graphics & Text | Print | Product List | Glossary On
Versions: 1 2 3 4 5 6 7 8 9 10 11 12 13 14 15 16 17 18 19 20 21 22 23 24 25 26 27 28 29 30 31 32 33 34 35 36 37 38 39 40 41 42 43 44 45 46 47 48 49 50
000
ASUS41 KLWX 201210
RWRLWX

REGIONAL WEATHER ROUNDUP
NATIONAL WEATHER SERVICE BALTIMORE MD/WASHINGTON DC
700 AM EST MON FEB 20 2017

Note: "FAIR" indicates few or no clouds below 12,000 feet
with no significant weather and/or obstructions to visibility.
 TC=TEMPERATURE CELSIUS

 * =Non NWS site. Station does not report precipitation (e.g. rain,
    snow, etc.), thunder, or fog.

DCZ001-MDZ009-015-VAZ040>042-051-053>054-201300-
WASHINGTON METRO

CITY           SKY/WX    TMP DP  RH WIND       PRES   REMARKS
WASHINGTON NAT PTCLDY    45  42  89 S5        30.19R
DULLES         PTCLDY    48  40  73 NW8       30.18R
ANDREWS AFB    CLEAR     40  37  87 W3        30.17R
FT BELVOIR     CLEAR     38  36  92 CALM      30.19R
QUANTICO       CLEAR     40  39  97 NW7       30.20R
COLLEGE PARK*  CLEAR     39  36  87 CALM      30.18R
LEESBURG*      CLEAR     43  41  93 MISG      30.20R
MANASSAS*      CLEAR     36  33  89 CALM      30.19R
GAITHERSBURG*  CLEAR     43  34  70 NW6       30.22R

$$

MDZ006>007-011-014-201300-
BALTIMORE METRO

CITY           SKY/WX    TMP DP  RH WIND       PRES   REMARKS
BWI AIRPORT    PTCLDY    39  37  92 SW3       30.17R
MD SCIENCE CTR   N/A     50  36  58 MISG      30.17R
MARTIN STATE   CLEAR     39  37  93 CALM      30.18R
ANNAPOLIS      CLEAR     41  40  96 NW3       30.17R FOG
FORT MEADE*      N/A     34  32  93 CALM      30.21R

$$

MDZ012-015-019>023-201300-
MARYLAND EASTERN SHORE

CITY           SKY/WX    TMP DP  RH WIND       PRES   REMARKS
OCEAN CITY     CLEAR     41  37  86 NW5       30.15R
SALISBURY      CLEAR     46  41  82 NW5       30.16R
BAY BRIDGE AP* CLEAR     45  39  81 CALM      30.17R HAZE
CAMBRIDGE*     CLEAR     39  37  93 CALM      30.17R
EASTON*        CLEAR     43  39  87 CALM      30.20R

$$

MDZ017>025-201300-
SOUTHERN MARYLAND

CITY           SKY/WX    TMP DP  RH WIND       PRES   REMARKS
PATUXENT RIVER CLEAR     45  41  86 NW7       30.17R
ST INIGOES     CLEAR     46  40  79 CALM      30.17R
LEONARDTOWN*   CLEAR     45  41  87 W5        30.19R

$$

MDZ003>005-201300-
NORTH CENTRAL MARYLAND

CITY           SKY/WX    TMP DP  RH WIND       PRES   REMARKS
FREDERICK*     CLEAR     39  36  87 CALM      30.21R
HAGERSTOWN APT CLEAR     47  38  71 NW8       30.18R
WESTMINSTER*   CLEAR     46  36  66 NW5       30.17R

$$

MDZ501>502-201300-
WESTERN MARYLAND

CITY           SKY/WX    TMP DP  RH WIND       PRES   REMARKS
OAKLAND*       CLOUDY    39  39 100 W6        30.21R FOG
CUMBERLAND*    CLEAR     46  41  81 NW5       30.25R

$$

VAZ025>031-201300-
SHENANDOAH VALLEY

CITY           SKY/WX    TMP DP  RH WIND       PRES   REMARKS
WINCHESTER*    CLEAR     43  37  81 CALM      30.19R
FRONT ROYAL*   CLEAR     43  36  75 S7        30.18R
LURAY*         PTCLDY    36  36 100 CALM      30.21R
NEW MARKET*    PTCLDY    32  29  90 CALM      30.20R
STAUNTON*      PTCLDY    28  27  93 CALM      30.22S
WAYNESBORO*    CLEAR     36  34  94 SW3       30.20R

$$

WVZ021-048>050-054>055-201300-
EASTERN WEST VIRGINIA PANHANDLE

CITY           SKY/WX    TMP DP  RH WIND       PRES   REMARKS
MARTINSBURG    CLEAR     43  38  82 E3        30.19R
PETERSBURG*      N/A     33  33  99 CALM      30.24R FOG

$$

VAZ036>039-050-201300-
CENTRAL FOOTHILLS

CITY           SKY/WX    TMP DP  RH WIND       PRES   REMARKS
CHARLOTTESVILL CLEAR     52  35  52 SW5       30.17R
CULPEPER*      CLEAR     33  32  96 CALM      30.19R
ORANGE*        CLEAR     34  32  93 CALM      30.19R
GORDONSVILLE*  CLEAR     33  32  97 MISG      30.17R
WARRENTON*     CLEAR     33  30  90 CALM      30.18R

$$

VAZ055>057-201300-
NORTH AND CENTRAL PIEDMONT

CITY           SKY/WX    TMP DP  RH WIND       PRES   REMARKS
FREDERICKSBRG* CLEAR     38  37  95 CALM      30.18R
STAFFORD*      CLEAR     34  34 100 CALM      30.23R

$$

NCZ024-NYZ072-PAZ021-071-VAZ022-071-201300-
OTHER REGIONAL OBSERVATIONS

CITY           SKY/WX    TMP DP  RH WIND       PRES   REMARKS
NEW YORK CITY  CLEAR     44  31  60 CALM      30.16R
PHILADELPHIA   CLEAR     43  32  65 N6        30.17R
PITTSBURGH     FOG       37  37 100 CALM      30.21S VSB<1/4
ROANOKE        CLEAR     41  37  86 N7        30.22S
RICHMOND       PTCLDY    48  40  73 N5        30.17R
RALEIGH        PTCLDY    43  39  86 CALM      30.18R

$$

ANZ530>537-201300-
MARINE OBSERVATIONS

STATION/POSITION TIME  TEMP    WIND        PRES
                       AIR SEA DIR/SP/G
                 (UTC) (F)     (DEG/KT/KT) (MB)
THOMAS PT LIGHT  1200   50 41  300/  6/  7   N/A
BALT KEY BRIDGE  1136   46     310/  3/  4 1021.4R
COVE POINT       1136   52     320/  8/  9 1021.9R
LEWISETTA        1136   53 45  320/  8/ 10 1021.2R
SOLOMONS ISLAND  1136   48 42  330/  2/  2   N/A
PINEY POINT      1148          340/  7/  8   N/A

$$




USA.gov is the U.S. government's official web portal to all federal, state and local government web resources and services.